Total_Precipitation_Accumulation
0.18 0.19 0.25 0.32 0.34 0.43 0.56 0.74 0.97 0.87 0.67 0.55 0.52 0.48 0.50 0.55 0.49 0.43 0.39 0.37 0.35 0.32 0.32 0.34 0.37 0.45 0.52 0.65 0.81 0.93 0.97 0.92 0.85 0.79 0.70 0.63 0.57 0.50 0.52 0.48 0.46 0.52 0.68 0.83
0.07 0.10 0.16 0.28 0.41 0.54 0.60 0.67 0.69 0.60 0.56 0.42 0.36 0.32 0.32 0.37 0.37 0.36 0.31 0.27 0.24 0.24 0.21 0.23 0.29 0.36 0.36 0.48 0.63 0.74 0.79 0.80 0.81 0.77 0.61 0.54 0.48 0.41 0.39 0.41 0.41 0.44 0.51 0.66
0.07 0.09 0.17 0.40 0.53 0.60 0.59 0.54 0.45 0.42 0.37 0.26 0.24 0.17 0.16 0.21 0.25 0.30 0.28 0.23 0.21 0.20 0.21 0.23 0.30 0.31 0.32 0.41 0.52 0.57 0.61 0.64 0.66 0.61 0.49 0.43 0.35 0.31 0.34 0.35 0.38 0.40 0.46 0.58
0.12 0.13 0.34 0.61 0.51 0.45 0.48 0.37 0.22 0.20 0.20 0.19 0.15 0.11 0.08 0.08 0.11 0.13 0.16 0.16 0.21 0.18 0.17 0.19 0.24 0.29 0.37 0.40 0.41 0.41 0.45 0.49 0.47 0.47 0.42 0.35 0.28 0.28 0.30 0.33 0.37 0.38 0.42 0.47
0.22 0.23 0.42 0.57 0.38 0.34 0.39 0.33 0.16 0.11 0.11 0.09 0.07 0.05 0.03 0.02 0.05 0.06 0.06 0.07 0.10 0.09 0.09 0.10 0.10 0.11 0.14 0.17 0.19 0.23 0.30 0.36 0.40 0.40 0.37 0.31 0.27 0.33 0.40 0.40 0.39 0.38 0.38 0.40
0.31 0.37 0.50 0.39 0.15 0.15 0.27 0.38 0.13 0.06 0.05 0.04 0.03 0.04 0.02 0.02 0.04 0.03 0.02 0.02 0.03 0.03 0.03 0.03 0.02 0.02 0.03 0.05 0.09 0.13 0.19 0.24 0.28 0.31 0.34 0.38 0.46 0.54 0.55 0.52 0.46 0.41 0.39 0.37
0.39 0.56 0.57 0.33 0.13 0.15 0.28 0.40 0.18 0.05 0.02 0.01 0.01 0.01 0.00 0.02 0.03 0.02 0.01 0.00 0.00 0.01 0.01 0.00 0.00 0.00 0.00 0.01 0.02 0.02 0.04 0.10 0.18 0.29 0.35 0.44 0.56 0.59 0.58 0.52 0.44 0.40 0.38 0.35
0.50 0.66 0.74 0.38 0.19 0.21 0.19 0.13 0.10 0.04 0.01 0.01 0.00 0.00 0.00 0.01 0.01 0.01 0.01 0.00 0.00 0.00 0.00 0.00 0.00 0.00 0.00 0.00 0.00 0.01 0.03 0.07 0.13 0.20 0.29 0.42 0.51 0.50 0.50 0.49 0.46 0.42 0.43 0.40
0.50 0.56 0.47 0.28 0.16 0.11 0.08 0.08 0.03 0.01 0.01 0.00 0.00 0.00 0.00 0.01 0.01 0.01 0.01 0.00 0.00 0.00 0.00 0.00 0.00 0.00 0.00 0.00 0.00 0.00 0.01 0.02 0.06 0.11 0.22 0.36 0.39 0.39 0.42 0.45 0.44 0.43 0.41 0.39
0.20 0.15 0.14 0.11 0.08 0.04 0.03 0.04 0.01 0.00 0.00 0.00 0.00 0.00 0.00 0.00 0.01 0.00 0.00 0.00 0.00 0.00 0.00 0.00 0.00 0.00 0.00 0.00 0.00 0.00 0.00 0.00 0.01 0.02 0.05 0.10 0.15 0.20 0.26 0.31 0.33 0.32 0.35 0.39
0.20 0.10 0.05 0.04 0.04 0.02 0.02 0.02 0.01 0.00 0.00 0.00 0.00 0.00 0.00 0.00 0.00 0.00 0.00 0.00 0.00 0.00 0.00 0.00 0.00 0.00 0.00 0.00 0.00 0.00 0.00 0.00 0.01 0.02 0.03 0.04 0.06 0.09 0.12 0.15 0.19 0.25 0.30 0.34
0.20 0.12 0.06 0.04 0.03 0.02 0.02 0.01 0.01 0.00 0.00 0.00 0.00 0.00 0.00 0.00 0.00 0.00 0.00 0.00 0.00 0.00 0.00 0.00 0.00 0.00 0.00 0.00 0.00 0.00 0.00 0.00 0.00 0.01 0.01 0.01 0.02 0.03 0.04 0.06 0.09 0.12 0.15 0.18
0.08 0.07 0.05 0.05 0.05 0.03 0.02 0.01 0.00 0.01 0.00 0.00 0.00 0.00 0.00 0.00 0.00 0.00 0.00 0.00 0.00 0.00 0.00 0.00 0.00 0.00 0.00 0.00 0.00 0.00 0.00 0.00 0.00 0.01 0.01 0.02 0.03 0.05 0.04 0.03 0.02 0.03 0.05 0.09
0.04 0.05 0.06 0.04 0.03 0.02 0.01 0.01 0.00 0.00 0.00 0.00 0.00 0.00 0.00 0.00 0.00 0.00 0.00 0.00 0.00 0.00 0.00 0.00 0.00 0.00 0.00 0.00 0.00 0.00 0.00 0.00 0.01 0.05 0.07 0.04 0.04 0.08 0.11 0.12 0.09 0.04 0.02 0.04
0.03 0.04 0.05 0.03 0.01 0.01 0.00 0.00 0.00 0.00 0.00 0.00 0.00 0.00 0.00 0.00 0.00 0.00 0.00 0.00 0.00 0.00 0.00 0.00 0.00 0.00 0.00 0.00 0.00 0.00 0.00 0.01 0.02 0.06 0.07 0.08 0.11 0.13 0.12 0.12 0.11 0.07 0.04 0.02
0.02 0.02 0.03 0.02 0.01 0.00 0.00 0.00 0.00 0.00 0.00 0.00 0.00 0.00 0.00 0.00 0.00 0.00 0.00 0.00 0.00 0.00 0.00 0.00 0.00 0.00 0.00 0.00 0.00 0.00 0.00 0.00 0.01 0.03 0.05 0.06 0.08 0.10 0.08 0.07 0.07 0.05 0.04 0.03
0.01 0.00 0.01 0.01 0.00 0.00 0.00 0.00 0.00 0.00 0.00 0.00 0.00 0.00 0.00 0.00 0.00 0.00 0.00 0.00 0.00 0.00 0.00 0.00 0.00 0.00 0.00 0.00 0.00 0.00 0.00 0.00 0.00 0.01 0.03 0.03 0.03 0.03 0.04 0.04 0.03 0.02 0.02 0.01
0.00 0.00 0.00 0.01 0.00 0.00 0.00 0.00 0.00 0.00 0.00 0.00 0.00 0.00 0.00 0.00 0.00 0.00 0.00 0.00 0.00 0.00 0.00 0.00 0.00 0.00 0.00 0.00 0.00 0.00 0.00 0.00 0.01 0.02 0.04 0.03 0.02 0.02 0.03 0.04 0.03 0.02 0.02 0.01
0.00 0.00 0.00 0.00 0.00 0.00 0.00 0.00 0.00 0.00 0.00 0.00 0.00 0.00 0.00 0.00 0.00 0.00 0.00 0.00 0.00 0.00 0.00 0.00 0.00 0.00 0.00 0.00 0.00 0.00 0.00 0.00 0.01 0.02 0.03 0.01 0.01 0.03 0.03 0.03 0.03 0.02 0.02 0.02
0.00 0.00 0.00 0.00 0.00 0.00 0.00 0.00 0.00 0.00 0.00 0.00 0.00 0.00 0.00 0.00 0.00 0.00 0.00 0.00 0.00 0.00 0.00 0.00 0.00 0.00 0.00 0.00 0.00 0.00 0.00 0.00 0.01 0.02 0.02 0.02 0.03 0.03 0.03 0.02 0.02 0.02 0.02 0.03
0.00 0.00 0.00 0.00 0.00 0.00 0.00 0.00 0.00 0.00 0.00 0.00 0.00 0.00 0.00 0.00 0.00 0.00 0.00 0.00 0.00 0.00 0.00 0.00 0.00 0.00 0.00 0.00 0.00 0.00 0.00 0.00 0.01 0.01 0.01 0.02 0.02 0.03 0.04 0.02 0.02 0.02 0.02 0.03
0.00 0.00 0.00 0.00 0.00 0.00 0.00 0.00 0.00 0.00 0.00 0.00 0.00 0.00 0.00 0.00 0.00 0.00 0.00 0.00 0.00 0.00 0.00 0.00 0.00 0.00 0.00 0.00 0.00 0.00 0.00 0.00 0.01 0.01 0.01 0.01 0.02 0.04 0.04 0.04 0.03 0.03 0.03 0.04
0.00 0.00 0.00 0.00 0.00 0.00 0.00 0.00 0.00 0.00 0.00 0.00 0.00 0.00 0.00 0.00 0.00 0.00 0.00 0.00 0.00 0.00 0.00 0.00 0.00 0.00 0.00 0.00 0.00 0.00 0.00 0.00 0.01 0.01 0.01 0.01 0.02 0.03 0.04 0.03 0.03 0.03 0.04 0.04
0.01 0.00 0.00 0.00 0.00 0.00 0.00 0.00 0.00 0.00 0.00 0.00 0.00 0.00 0.00 0.00 0.00 0.00 0.00 0.00 0.00 0.00 0.00 0.00 0.00 0.00 0.00 0.00 0.00 0.00 0.00 0.00 0.00 0.00 0.01 0.01 0.01 0.02 0.03 0.02 0.02 0.02 0.03 0.04
0.01 0.01 0.00 0.00 0.00 0.00 0.00 0.00 0.00 0.00 0.00 0.00 0.00 0.00 0.00 0.00 0.00 0.00 0.00 0.00 0.00 0.00 0.00 0.00 0.00 0.00 0.00 0.00 0.00 0.00 0.00 0.00 0.01 0.01 0.01 0.01 0.02 0.02 0.02 0.02 0.02 0.02 0.03 0.03
0.02 0.01 0.01 0.00 0.00 0.00 0.00 0.00 0.00 0.00 0.00 0.00 0.00 0.00 0.00 0.00 0.00 0.00 0.00 0.00 0.00 0.00 0.00 0.00 0.00 0.00 0.00 0.00 0.00 0.00 0.00 0.01 0.01 0.01 0.02 0.02 0.02 0.03 0.03 0.03 0.03 0.03 0.03 0.04
0.02 0.01 0.01 0.01 0.01 0.01 0.01 0.00 0.00 0.00 0.00 0.00 0.00 0.00 0.00 0.00 0.00 0.00 0.00 0.00 0.00 0.00 0.00 0.00 0.00 0.00 0.00 0.01 0.01 0.01 0.01 0.01 0.02 0.02 0.02 0.03 0.03 0.04 0.04 0.05 0.05 0.05 0.06 0.06